CW4525 Weather Reports


Display with metric or nautical units.
time (UTC)temp
F
wind
direction
speed
MPH
gust
MPH
rain 1hr
in
rain 24hr
in
rain mn
in
humidity
%
barometer
mb
20260905130004 63 315 3.0 7.0 0.00 0.00 0.00 89 1005.9
20260905124502 62 278 0.0 1.0 0.00 0.00 0.00 90 1006.0
20260905123108 61 287 0.0 2.0 0.00 0.00 0.00 90 1005.8
20260905121558 61 287 0.0 1.0 0.00 0.00 0.00 91 1005.7
20260905120100 61 287 0.0 0.0 0.00 0.00 0.00 92 1005.7
20260905114601 60 287 0.0 4.0 0.00 0.00 0.00 92 1005.5
20260905113054 60 287 1.0 6.0 0.00 0.00 0.00 92 1005.5
20260905111551 59 248 0.0 4.0 0.00 0.00 0.00 92 1005.4
20260905110048 59 245 2.0 5.0 0.00 0.00 0.00 91 1005.4
20260905104547 59 280 0.0 4.0 0.00 0.00 0.00 91 1005.3
20260905103045 59 280 0.0 4.0 0.00 0.00 0.00 91 1005.2
20260905101556 59 299 0.0 2.0 0.00 0.00 0.00 91 1005.2
20260905100114 59 280 0.0 6.0 0.00 0.00 0.00 90 1005.2
20260905094548 59 323 0.0 4.0 0.00 0.01 0.00 89 1004.8
20260905093039 60 325 0.0 2.0 0.00 0.01 0.00 89 1004.8
20260905091553 60 342 0.0 6.0 0.00 0.01 0.00 89 1004.7
20260905090037 60 315 0.0 7.0 0.00 0.01 0.00 88 1004.7
20260905084542 60 269 0.0 4.0 0.00 0.01 0.00 88 1004.7
20260905083049 61 317 0.0 5.0 0.00 0.01 0.00 88 1004.7
20260905081533 61 284 1.0 6.0 0.00 0.01 0.00 87 1004.6
20260905080035 61 317 2.0 8.0 0.00 0.01 0.00 87 1004.7
20260905074532 61 272 0.0 5.0 0.00 0.01 0.00 86 1004.7
20260905073031 61 261 4.0 8.0 0.00 0.01 0.00 86 1004.7
20260905071530 62 273 0.0 6.0 0.00 0.01 0.00 86 1004.7
20260905070029 61 306 1.0 7.0 0.00 0.01 0.00 86 1004.8
20260905064528 61 263 2.0 6.0 0.00 0.01 0.00 86 1005.2
20260905063027 62 265 1.0 6.0 0.00 0.01 0.00 86 1005.1
20260905061528 62 267 2.0 6.0 0.00 0.01 0.00 85 1005.1
20260905060037 62 327 1.0 7.0 0.00 0.01 0.00 85 1005.2
20260905054556 62 325 1.0 9.0 0.00 0.01 0.00 85 1005.5
20260905053024 62 301 1.0 7.0 0.00 0.01 0.00 85 1005.3
20260905051524 62 270 3.0 6.0 0.00 0.01 0.00 85 1005.6
20260905050021 62 276 1.0 5.0 0.00 0.01 0.00 84 1005.6
20260905044521 62 269 1.0 9.0 0.00 0.01 0.00 84 1005.7
20260905043019 62 273 0.0 4.0 0.00 0.01 0.00 83 1005.4
20260905041520 63 272 0.0 0.0 0.00 0.01 0.00 83 1005.4
20260905040015 63 272 0.0 4.0 0.00 0.01 0.01 81 1005.5
20260905034516 64 294 0.0 4.0 0.00 0.01 0.01 80 1005.2
20260905033017 64 294 0.0 4.0 0.00 0.01 0.01 79 1005.2
20260905031514 65 293 0.0 1.0 0.00 0.01 0.01 79 1005.4
20260905030014 65 293 0.0 4.0 0.00 0.01 0.01 78 1005.7
20260905024514 65 278 2.0 6.0 0.00 0.01 0.01 77 1005.7
20260905023012 65 302 0.0 6.0 0.00 0.01 0.01 77 1005.7
20260905021512 66 293 1.0 8.0 0.00 0.01 0.01 76 1005.7
20260905020013 66 336 3.0 8.0 0.00 0.01 0.01 76 1005.9
20260905014510 66 308 3.0 8.0 0.00 0.01 0.01 76 1005.9
20260905013014 66 300 0.0 4.0 0.00 0.01 0.01 75 1006.1
20260905011513 67 259 0.0 5.0 0.00 0.01 0.01 74 1006.1
20260905010015 67 321 2.0 6.0 0.00 0.01 0.01 73 1006.0
20260905004508 67 301 1.0 3.0 0.00 0.01 0.01 72 1006.0
20260905003008 68 321 1.0 6.0 0.00 0.01 0.01 70 1006.1
20260905001510 68 294 0.0 0.0 0.00 0.01 0.01 69 1005.8
20260905000007 69 295 2.0 7.0 0.00 0.01 0.01 68 1006.0
20260904234506 69 330 3.0 8.0 0.00 0.01 0.01 67 1005.8
20260904233006 70 322 1.0 6.0 0.00 0.01 0.01 66 1005.7
20260904231509 71 320 3.0 10.0 0.00 0.01 0.01 64 1005.5
20260904230010 72 338 1.0 6.0 0.00 0.01 0.01 63 1005.4
20260904224504 73 337 4.0 7.0 0.00 0.01 0.01 62 1005.3
20260904223004 74 300 4.0 11.0 0.00 0.01 0.01 60 1005.2
20260904221503 75 297 1.0 8.0 0.00 0.01 0.01 57 1005.2
20260904220002 77 259 3.0 9.0 0.00 0.01 0.01 56 1005.2
20260904214502 78 275 5.0 14.0 0.00 0.01 0.01 56 1005.1
20260904213002 78 292 5.0 12.0 0.00 0.01 0.01 53 1005.1
20260904211504 78 319 4.0 12.0 0.00 0.01 0.01 54 1005.1
20260904204602 79 299 5.0 12.0 0.00 0.01 0.01 50 1004.9
20260904203100 79 242 4.0 13.0 0.00 0.01 0.01 53 1005.0
20260904201559 77 285 3.0 8.0 0.00 0.01 0.01 61 1005.0
20260904201500 77 265 2.0 8.0 0.00 0.01 0.01 58 1005.0
20260904200112 77 323 3.0 7.0 0.00 0.01 0.01 57 1005.1
20260904194556 77 10 5.0 10.0 0.00 0.01 0.01 60 1005.1
20260904193057 78 315 5.0 12.0 0.00 0.01 0.01 55 1005.2
20260904191556 79 342 3.0 10.0 0.00 0.01 0.01 56 1005.2
20260904190056 79 297 5.0 12.0 0.00 0.01 0.01 56 1005.2
20260904184554 79 303 5.0 14.0 0.00 0.01 0.01 55 1005.2
20260904183054 80 313 4.0 12.0 0.00 0.01 0.01 51 1005.3
20260904181552 81 336 4.0 10.0 0.00 0.01 0.01 51 1005.2
20260904180051 81 331 3.0 12.0 0.00 0.01 0.01 51 1005.2
20260904174548 80 284 4.0 11.0 0.00 0.01 0.01 55 1005.2
20260904173059 79 325 6.0 13.0 0.00 0.01 0.01 51 1005.5
20260904171547 79 310 4.0 16.0 0.00 0.01 0.01 56 1005.4
20260904170041 78 284 6.0 12.0 0.00 0.01 0.01 57 1005.7
20260904164536 77 243 6.0 16.0 0.00 0.01 0.01 59 1005.8
20260904163034 76 277 4.0 10.0 0.00 0.01 0.01 62 1005.6
20260904161534 76 340 4.0 10.0 0.00 0.01 0.01 63 1005.8
20260904160043 76 308 5.0 10.0 0.00 0.01 0.01 64 1005.9
20260904154531 77 319 2.0 10.0 0.00 0.01 0.01 66 1006.2
20260904153029 76 250 4.0 12.0 0.00 0.01 0.01 66 1006.1
20260904151525 75 309 3.0 11.0 0.00 0.01 0.01 72 1006.1
20260904150021 73 317 6.0 10.0 0.00 0.01 0.01 79 1006.2
20260904144516 71 263 3.0 8.0 0.00 0.01 0.01 85 1006.3
20260904143012 69 319 5.0 11.0 0.00 0.01 0.01 93 1006.4
20260904141507 68 279 2.0 7.0 0.00 0.01 0.01 95 1006.4
20260904140004 66 269 2.0 5.0 0.00 0.01 0.01 96 1006.5
20260904134502 66 298 1.0 5.0 0.00 0.01 0.01 96 1006.5
20260904133002 65 286 0.0 4.0 0.00 0.01 0.01 96 1006.5
20260904131603 64 276 0.0 2.0 0.00 0.01 0.01 96 1006.5